Flag for Cuba Weather past 2 weeks in Santiago de Cuba, Cuba

Now
86 °F

Passing clouds.


Feels Like: 92 °F
Forecast: N/A
Wind: 10 mph from Southwest

Location: Santiago De Cuba - Oriente

Current Time: Apr 26, 2015 at 5:18:24 PM

Latest Report: Apr 26, 2015 at 4:51 PM


Visibility: 6 mi

Pressure: 29.86 "Hg

Humidity: 62%

Dew point: 72 °F

Location of Santiago de CubaLocation

Historic Weather in Santiago de Cuba — Graph

°F

Santiago de Cuba temperature yesterday

Maximum temperature yesterday: 84 °F (at 8:50 AM)
Minimum temperature yesterday: 73 °F (at 5:05 AM)
Average temperature yesterday: 80 °F

Past Weeks' High & Low Weather Summary

 TemperatureHumidityPressure
High88 °F (Apr 21, 12:50 PM)89% (Apr 16, 1:51 AM)30.09 "Hg (Apr 16, 1:51 AM)
Low70 °F (Apr 16, 6:50 AM)45% (Apr 15, 10:50 AM)29.86 "Hg (Apr 26, 3:51 PM)
Average80 °F70%29.99 "Hg
* Reported Apr 11 3:50 PM — Apr 26 3:51 PM, Santiago de Cuba, Weather by CustomWeather, © 2015

Note: Actual official high and low records may vary slightly from our data, if they occured in-between our weather recording intervals... More about our weather records

Advertising

Santiago de Cuba weather history for previous 24 hours

 ConditionsComfort  
Time TempWeatherWind HumidityBarometerVisibility
3:51 PM
Sun, Apr 26
88 °FPassing clouds.10 mph55%29.86 "Hg6 mi
2:51 PM88 °FScattered clouds.10 mph59%29.89 "Hg6 mi
1:50 PM88 °FScattered clouds.12 mph59%29.92 "Hg6 mi
12:50 PM86 °FScattered clouds.9 mph62%29.95 "Hg6 mi
11:50 AM86 °FScattered clouds.10 mph59%29.95 "Hg6 mi
10:54 AM86 °FScattered clouds.9 mph59%29.95 "Hg6 mi
9:50 AM84 °FScattered clouds.8 mph66%29.95 "Hg6 mi
8:52 AM82 °FScattered clouds.7 mph70%29.95 "Hg6 mi
7:51 AM81 °FScattered clouds.5 mph74%29.92 "Hg6 mi
6:51 AM81 °FPassing clouds.5 mph74%29.92 "Hg6 mi
5:50 AM81 °FPassing clouds.7 mph74%29.92 "Hg6 mi
4:51 AM81 °FPassing clouds.3 mph74%29.89 "Hg6 mi
3:51 AM79 °FPassing clouds.3 mph79%29.89 "Hg6 mi
2:51 AM81 °FPassing clouds.3 mph74%29.92 "Hg6 mi
1:50 AM81 °FPassing clouds.5 mph74%29.92 "Hg6 mi
12:50 AM81 °FPassing clouds.2 mph74%29.95 "Hg6 mi
11:51 PM
Sat, Apr 25
81 °FPassing clouds.2 mph74%29.95 "Hg6 mi
10:52 PM81 °FPassing clouds.1 mph74%29.95 "Hg6 mi
9:52 PM82 °FPassing clouds.3 mph70%29.95 "Hg6 mi
8:52 PM82 °FPassing clouds.6 mph70%29.92 "Hg6 mi
7:51 PM82 °FScattered clouds.6 mph70%29.92 "Hg6 mi
6:52 PM82 °FScattered clouds.7 mph70%29.89 "Hg6 mi
5:50 PM84 °FScattered clouds.9 mph66%29.89 "HgN/A
Weather by CustomWeather, © 2015

See weather overviewHow to use our weather pages